Regional Weather Roundup
Issued by NWS Cleveland, OH

Home | Current Version | Previous Version | Graphics & Text | Print | Product List | Glossary On
Versions: 1 2 3 4 5 6 7 8 9 10 11 12 13 14 15 16 17 18 19 20 21 22 23 24 25 26 27 28 29 30 31 32 33 34 35 36 37 38 39 40 41 42 43 44 45 46 47 48 49 50
000
ASUS41 KCLE 040202
RWRCLE
OHIO REGIONAL WEATHER ROUNDUP
NATIONAL WEATHER SERVICE CLEVELAND, OH
1000 PM EDT FRI JUL 03 2015

NOTE: "FAIR" INDICATES FEW OR NO CLOUDS BELOW 12,000 FEET WITH NO
SIGNIFICANT WEATHER AND/OR OBSTRUCTIONS TO VISIBILITY.

OHZ001>008-015>018-024>027-034-035-043-044-040300-
   NORTHWEST OHIO

CITY           SKY/WX    TMP DP  RH WIND       PRES   REMARKS
DEFIANCE       CLEAR     65  56  72 CALM      29.92R
FINDLAY        CLEAR     66  54  65 NE3       29.91R
TOLEDO EXPRESS CLEAR     60  54  80 NE5       29.92R
TOLEDO EXEC    CLEAR     64  52  64 CALM      29.93R
LIMA           PTCLDY    64  57  78 NE5       29.92R
$$

OHZ009>014-019>023-028>033-038-089-040300-
   NORTHEAST OHIO

CITY           SKY/WX    TMP DP  RH WIND       PRES   REMARKS
CLE-HOPKINS    CLOUDY    67  53  61 NE8       29.93S
CLE-LAKEFRONT  CLOUDY    69  52  54 E7        29.90R
CUY CO. ARPT   MOCLDY    66  54  63 NE5       29.92S
LORAIN-ELYRIA  MOCLDY    64  56  75 NE3       29.92R
ASHTABULA      CLOUDY    63  50  62 E3        29.93S
AKRON-CANTON   CLOUDY    70  60  70 N6        29.90R
WOOSTER        MOCLDY    65  57  75 N6        29.91S
MANSFIELD      PTCLDY    64  57  78 N7        29.91S
YOUNGSTOWN     CLOUDY    68  57  68 N5        29.91R
$$

OHZ042-051>053-060>062-070>072-077>081-040300-
  SOUTHWEST OHIO

CITY           SKY/WX    TMP DP  RH WIND       PRES   REMARKS
CINC-COVINGTON CLOUDY    71  63  75 E7        29.89R
CINC-LUNKEN    CLOUDY    70  64  81 CALM      29.89R
HAMILTON       PTCLDY    67  64  90 N3        29.90R
DAYTON         CLOUDY    69  67  93 NE3       29.91R
WRIGHT-PAT AFB PTCLDY    69  64  85 CALM      29.89R
DAYTON GENERAL PTCLDY    66  62  87 CALM      29.89S
WILMINGTON     CLOUDY    66  62  87 NE3       29.89S
$$

OHZ036-037-039>041-045>050-054>059-063>069-073>076-082>088-040300-
  CENTRAL AND SOUTHEAST OHIO

CITY           SKY/WX    TMP DP  RH WIND       PRES   REMARKS
COLUMBUS       MOCLDY    67  64  90 NW3       29.88R
OSU AIRPORT    CLOUDY    70  64  81 CALM      29.89R
BOLTON FIELD   NOT AVBL
RICKENBACK AFB NOT AVBL
NEWARK         CLOUDY    67  65  93 CALM      29.88S FOG
MARION         PTCLDY    65  57  75 N7        29.91R
LANCASTER      MOCLDY    64  62  93 CALM      29.89R FOG
ZANESVILLE     NOT AVBL
NEW PHILLY     CLOUDY    68  64  87 CALM      29.89S
$$



USA.gov is the U.S. government's official web portal to all federal, state and local government web resources and services.